Location: Baumgarten
(49.0970°N, 12.7493°E)
Time: 17:09:08
(UTC+00:00)

Cosmos 2237 - Pass Details

Date: 05 July 2020
Orbit: 845 x 857 km, 70.8° (Epoch: 12 August)

Event Time Altitude Azimuth Distance (km) Brightness Sun altitude
Rises 19:56:57 0° 200° (SSW) 3,410 7.1 -5.9°
Reaches altitude 10° 19:59:23 10° 199° (SSW) 2,480 6.4 -6.2°
Maximum altitude 20:05:04 75° 115° (ESE) 892 4.2 -6.8°
Drops below altitude 10° 20:10:48 10° 31° (NNE) 2,501 6.9 -7.5°
Sets 20:13:17 0° 30° (NNE) 3,442 7.6 -7.8°
